Ozark, AL

2:01 PM CDT on March 23, 2017 (GMT -0500)
Cairns Army Air Field

Weather History for KOZR - April, 2014

Change the Weather History Date:

Thursday, April 3, 2014

  Actual Average Record
Temperature  
Mean Temperature 70 °F -  
Max Temperature 81 °F 72 °F 86 °F (2006)
Min Temperature 59 °F 50 °F 37 °F (2005)
Cooling Degree Days 5    
Growing Degree Days 20 (Base 50)    
Moisture  
Dew Point 60 °F    
Average Humidity 85    
Maximum Humidity 100    
Minimum Humidity 46    
Precipitation  
Precipitation 0.00 in - - ()
Sea Level Pressure  
Sea Level Pressure 30.06 in    
Wind  
Wind Speed 7 mph (South)    
Max Wind Speed 17 mph    
Max Gust Speed 23 mph    
Visibility 7 miles    
Events Fog    
Averages and records for this station are not official NWS values.
T = Trace of Precipitation, MM = Missing Value Source: NWS Daily Summary

Daily Weather History Graph

Daily Weather History Graph

Search for Another Location

Airport or City:

Trip Planner

Search our weather history database for the weather conditions in past years. The results will help you decide how hot, cold, wet, or windy it might be!

Date:

Astronomy

Apr. 03, 2014 Rise Set
Actual Time 6:29 AM CDT 7:03 PM CDT
Civil Twilight 6:04 AM CDT 7:27 PM CDT
Nautical Twilight 5:35 AM CDT 7:56 PM CDT
Astronomical Twilight 5:06 AM CDT 8:26 PM CDT
Moon 9:10 AM CDT (4/3) 11:09 PM CDT (4/3)
Length of Visible Light 13h 23m
Length of Day
12h 34m
Waxing Crescent, 17% of the Moon is Illuminated
Apr 3
Waxing Crescent
Apr 7
First Quarter
Apr 15
Full
Apr 22
Last Quarter
Apr 29
New

Hourly Weather History & Observations

Time (CDT) Temp. Heat Index Dew Point Humidity Pressure Visibility Wind Dir Wind Speed Gust Speed Precip Events Conditions
12:58 AM 62.8 °F - 60.6 °F 93% 30.09 in 10.0 mi South 5.8 mph - N/A   Clear
1:58 AM 62.2 °F - 60.8 °F 95% 30.08 in 10.0 mi South 6.9 mph - N/A   Clear
2:58 AM 61.5 °F - 60.6 °F 97% 30.06 in 10.0 mi South 5.8 mph - N/A   Clear
3:58 AM 60.4 °F - 59.7 °F 97% 30.05 in 8.0 mi South 4.6 mph - N/A   Clear
4:46 AM 59.0 °F - 59.0 °F 100% 30.05 in 4.0 mi South 5.8 mph - N/A   Partly Cloudy
4:56 AM 60.8 °F - 59.0 °F 94% 30.06 in 4.0 mi South 4.6 mph - N/A   Mostly Cloudy
4:58 AM 60.1 °F - 59.5 °F 98% 30.06 in 5.0 mi South 3.5 mph - N/A   Mostly Cloudy
5:03 AM 60.8 °F - 60.8 °F 100% 30.06 in 5.0 mi South 4.6 mph - N/A   Mostly Cloudy
5:28 AM 60.8 °F - 60.8 °F 100% 30.06 in 2.5 mi South 3.5 mph - N/A   Overcast
5:33 AM 60.8 °F - 60.8 °F 100% 30.06 in 1.8 mi South 5.8 mph - N/A   Overcast
5:38 AM 60.8 °F - 60.8 °F 100% 30.06 in 0.8 mi South 5.8 mph - N/A   Mist
5:43 AM 60.8 °F - 60.8 °F 100% 30.06 in 0.5 mi South 5.8 mph - N/A Fog Fog
5:58 AM 60.4 °F - 60.1 °F 99% 30.06 in 0.5 mi South 5.8 mph - N/A Fog Fog
6:53 AM 60.8 °F - 60.8 °F 100% 30.07 in 0.8 mi South 8.1 mph - N/A   Mist
6:58 AM 60.8 °F - 60.8 °F 100% 30.07 in 1.2 mi South 8.1 mph - N/A   Overcast
7:03 AM 60.8 °F - 60.8 °F 100% 30.08 in 1.5 mi South 8.1 mph - N/A   Overcast
7:13 AM 60.8 °F - 60.8 °F 100% 30.08 in 2.0 mi South 8.1 mph - N/A   Overcast
7:18 AM 60.8 °F - 60.8 °F 100% 30.08 in 3.0 mi South 6.9 mph - N/A   Overcast
7:43 AM 60.8 °F - 60.8 °F 100% 30.08 in 10.0 mi SW 5.8 mph - N/A   Overcast
7:58 AM 61.3 °F - 61.0 °F 99% 30.09 in 10.0 mi SSW 4.6 mph - N/A   Overcast
8:08 AM 60.8 °F - 60.8 °F 100% 30.09 in 10.0 mi South 4.6 mph - N/A   Overcast
8:28 AM 62.6 °F - 60.8 °F 94% 30.09 in 10.0 mi South 6.9 mph - N/A   Overcast
8:58 AM 65.1 °F - 61.5 °F 88% 30.09 in 10.0 mi SSE 6.9 mph - N/A   Mostly Cloudy
9:03 AM 64.4 °F - 62.6 °F 94% 30.09 in 10.0 mi South 6.9 mph - N/A   Mostly Cloudy
9:33 AM 66.2 °F - 60.8 °F 83% 30.10 in 10.0 mi South 6.9 mph - N/A   Mostly Cloudy
9:38 AM 66.2 °F - 60.8 °F 83% 30.10 in 10.0 mi SE 9.2 mph - N/A   Mostly Cloudy
9:58 AM 66.9 °F - 61.5 °F 83% 30.11 in 10.0 mi South 10.4 mph - N/A   Mostly Cloudy
10:58 AM 68.0 °F - 61.9 °F 81% 30.11 in 10.0 mi SSW 9.2 mph - N/A   Mostly Cloudy
11:06 AM 69.8 °F - 62.6 °F 78% 30.10 in 10.0 mi SSE 8.1 mph - N/A   Scattered Clouds
11:58 AM 73.8 °F - 61.9 °F 66% 30.09 in 10.0 mi South 11.5 mph - N/A   Partly Cloudy
12:58 PM 78.6 °F - 61.2 °F 55% 30.06 in 10.0 mi South 12.7 mph 21.9 mph N/A   Clear
1:58 PM 80.4 °F 81.2 °F 60.1 °F 50% 30.03 in 10.0 mi South 11.5 mph 19.6 mph N/A   Clear
2:58 PM 80.6 °F 81.0 °F 58.5 °F 47% 30.01 in 10.0 mi South 17.3 mph 23.0 mph N/A   Clear
3:58 PM 81.0 °F 81.2 °F 58.1 °F 46% 30.00 in 10.0 mi South 16.1 mph 21.9 mph N/A   Clear
4:53 PM 78.8 °F - 57.2 °F 47% 30.00 in 10.0 mi South 13.8 mph - N/A   Clear
4:58 PM 79.5 °F - 57.4 °F 47% 30.01 in 10.0 mi South 16.1 mph - N/A   Clear
5:58 PM 77.0 °F - 59.0 °F 54% 30.01 in 10.0 mi South 11.5 mph - N/A   Clear
6:58 PM 72.7 °F - 59.0 °F 62% 30.02 in 10.0 mi South 8.1 mph - N/A   Clear
7:58 PM 68.4 °F - 58.3 °F 70% 30.03 in 10.0 mi South 6.9 mph - N/A   Clear
8:58 PM 65.7 °F - 57.9 °F 76% 30.02 in 10.0 mi South 6.9 mph - N/A   Clear
10:58 PM 63.0 °F - 60.4 °F 91% 30.01 in 10.0 mi South 4.6 mph - N/A   Clear
11:58 PM 61.9 °F - 60.6 °F 96% 30.01 in 10.0 mi SSE 2.3 mph - N/A   Clear